Location: Chuathbaluk
(61.5726°N, 159.2454°W)
Time: 16:14:53
(UTC+00:00)

ITAMSAT 1 - Pass Details

Date: 20 January 2021
Orbit: 784 x 796 km, 98.9° (Epoch: 05 March)

Event Time Altitude Azimuth Distance (km) Brightness Sun altitude
Rises 15:19:10 0° 25° (NNE) 3,291 11.3 -28.0°
Reaches altitude 10° 15:23:43 10° 62° (ENE) 2,356 11.0 -27.5°
Maximum altitude 15:24:57 11° 76° (ENE) 2,299 11.0 -27.3°
Drops below altitude 10° 15:26:12 10° 90° (E) 2,353 11.1 -27.2°
Sets 15:30:43 0° 127° (SE) 3,276 11.5 -26.7°
